Location: Burgberg
(50.1428°N, 11.0671°E)
Time: 15:59:23
(UTC+00:00)

STARLINK-37 - Pass Details

Date: 26 January 2020
Orbit: 528 x 531 km, 53.0° (Epoch: 19 February)

Event Time Altitude Azimuth Distance (km) Brightness Sun altitude
Exits shadow 05:17:41 32° 278° (W) 924 4.2 -16.0°
Maximum altitude 05:19:23 64° 348° (NNW) 593 3.6 -15.7°
Drops below altitude 10° 05:23:24 10° 71° (ENE) 1,783 7.2 -15.1°
Sets 05:25:38 0° 75° (ENE) 2,675 8.3 -14.7°
